Temperature
23 21 20 21 28 33 32 32 32 32 32 31 30 31 31 31 30 28 23 23 22 22 22 22 21 21 20 20 20 20 20 20 20 20 20 20 20 20 20 20 20 20 20 20 20 20 20 20 20
22 21 21 25 32 32 31 32 32 32 31 30 30 30 30 29 26 24 23 22 22 22 22 22 22 21 21 21 20 20 20 20 20 20 20 20 20 20 20 20 20 20 20 20 20 20 20 20 20
22 21 25 32 33 32 31 32 32 31 30 30 30 29 29 28 25 23 22 22 22 21 21 22 22 21 21 21 21 20 20 20 20 20 20 20 20 20 20 20 20 20 20 20 20 19 19 19 19
22 24 28 32 32 32 32 32 32 32 31 30 30 30 28 24 24 23 22 22 22 21 21 22 22 22 21 21 21 21 20 20 20 20 20 20 20 20 19 19 19 19 19 19 19 19 19 19 19
23 29 32 33 32 32 32 32 31 32 32 31 30 30 28 23 23 23 23 22 22 22 21 22 22 22 21 21 21 21 21 20 20 20 20 20 20 19 19 19 19 19 19 19 19 19 19 18 18
28 32 32 32 32 32 32 31 31 32 31 31 30 30 27 23 23 23 23 22 22 22 21 21 22 22 21 21 21 21 20 20 20 20 20 20 20 19 19 19 19 19 19 19 19 19 18 18 18
30 32 32 32 32 32 32 31 32 32 32 31 31 31 27 24 23 23 22 22 22 22 21 21 21 21 21 21 21 20 20 20 20 20 20 19 19 19 19 19 19 19 19 19 19 19 18 18 18
29 32 32 32 32 32 32 32 32 32 32 30 30 31 29 24 23 22 22 22 22 21 21 20 20 20 20 20 20 20 20 20 20 20 20 19 19 19 19 19 19 19 19 19 19 19 19 18 18
28 32 32 33 32 33 32 32 32 31 31 30 29 29 28 25 23 22 22 21 21 21 20 20 20 20 19 19 19 20 20 20 20 19 19 20 19 18 18 19 19 19 19 19 19 19 19 19 18
30 32 33 32 33 33 32 32 32 32 32 30 28 26 25 24 24 23 22 22 21 21 20 20 20 20 19 19 19 19 19 19 19 18 18 18 18 18 18 18 19 19 19 19 19 19 19 19 18
31 31 32 32 31 31 32 33 32 33 33 32 30 27 25 24 24 23 23 22 22 21 21 21 20 20 20 19 19 19 19 18 18 18 18 18 18 18 18 18 19 19 19 19 18 18 18 18 18
30 31 30 31 31 31 32 32 32 33 33 31 30 28 26 25 25 24 23 22 22 22 21 21 21 21 21 20 19 19 19 19 19 18 18 18 18 18 18 18 18 18 18 18 18 18 18 18 18
29 30 30 30 30 30 31 32 32 32 30 29 28 27 26 26 25 24 23 23 22 22 22 21 22 21 22 21 21 20 19 19 19 18 18 18 18 18 18 18 18 18 18 18 18 18 18 18 18
29 29 30 30 30 30 31 32 32 31 29 28 28 27 26 26 25 24 23 23 22 22 22 22 22 22 22 22 21 20 19 19 19 18 18 18 18 18 18 18 18 18 18 18 18 18 18 18 18
28 29 31 31 31 31 31 32 32 29 29 29 28 27 26 25 25 24 24 23 23 22 22 22 22 22 22 21 21 20 19 19 19 18 18 18 18 18 18 18 18 18 18 18 18 18 18 18 18
30 30 30 32 31 30 31 31 31 28 29 29 28 27 26 24 24 24 23 23 23 22 22 22 22 21 21 21 21 20 19 19 18 18 18 18 18 18 18 18 18 18 18 18 18 18 18 18 18
29 30 30 31 31 31 31 31 30 28 29 28 27 26 26 24 24 23 23 23 23 22 22 22 21 21 21 20 20 19 19 19 18 18 18 18 18 17 17 17 17 17 17 17 17 17 18 18 18
29 30 30 30 30 30 30 30 29 28 28 28 27 27 25 25 24 23 23 23 22 22 22 22 22 21 21 20 20 20 19 19 18 18 17 17 17 17 17 17 17 17 17 17 17 17 17 17 17
29 29 29 29 29 29 29 29 29 28 28 27 27 26 26 24 23 22 22 22 22 22 22 22 22 21 21 20 20 19 19 18 18 18 17 17 17 16 16 16 16 16 16 16 17 17 17 17 17
28 28 29 29 29 29 29 29 29 28 27 26 26 25 25 24 22 22 22 22 22 22 22 22 22 22 21 21 20 20 19 18 18 17 17 17 16 16 16 16 16 16 16 16 16 16 16 16 16
28 29 28 28 29 29 29 28 28 28 26 25 25 24 24 23 23 22 21 21 21 21 22 22 22 22 21 21 20 19 19 18 18 17 17 16 16 16 16 16 16 16 15 16 16 16 15 16 16
28 29 28 28 28 28 28 28 28 28 28 27 25 24 24 23 23 22 22 21 21 21 21 21 21 21 21 20 20 19 19 18 18 17 17 16 16 16 15 15 15 15 15 15 15 15 15 15 15
28 28 28 28 27 28 28 27 29 28 27 27 26 24 23 23 22 22 21 21 20 20 21 21 20 20 20 20 19 19 18 18 17 17 16 16 15 15 15 15 15 15 15 14 15 15 14 14 15
28 27 27 27 28 27 27 27 27 27 25 25 25 23 22 22 21 21 20 20 20 20 20 20 20 19 19 19 19 19 18 18 17 17 16 16 15 15 14 14 14 14 14 14 14 14 14 14 14
28 27 26 26 26 26 27 26 26 24 23 23 23 22 21 20 20 19 19 19 19 19 19 19 19 19 18 18 18 18 18 17 17 16 16 16 15 15 14 14 14 14 14 14 14 14 14 14 14
28 27 25 25 25 26 27 26 25 23 21 20 19 19 19 18 18 17 17 17 17 18 18 18 18 18 17 17 17 17 17 16 16 16 16 15 15 15 15 14 14 14 14 14 13 13 13 13 13
27 27 27 26 26 25 26 26 23 22 21 20 18 18 17 16 15 15 15 15 15 15 16 16 16 16 16 16 16 16 16 16 16 16 16 15 15 15 14 14 14 13 13 13 14 13 13 13 13
27 27 26 26 24 24 26 26 25 22 20 19 18 17 16 15 15 14 13 13 13 13 13 14 14 14 14 15 15 15 15 15 15 15 15 15 15 14 14 14 13 13 13 13 13 13 13 13 13
26 26 26 26 25 24 24 25 21 20 19 18 17 16 15 15 14 14 13 13 13 13 13 12 12 13 13 14 14 14 14 14 14 14 14 14 14 14 14 14 13 13 13 13 13 13 13 13 13
26 26 25 24 24 24 24 23 19 18 18 17 16 15 14 14 14 13 13 12 12 12 12 12 12 12 12 12 13 13 13 13 13 13 13 14 14 14 13 13 13 12 12 12 12 12 12 12 13
Wind_Speed
9 7 5 5 5 3 10 8 5 5 4 4 2 1 3 4 4 4 6 15 17 19 21 22 19 18 17 16 16 16 15 15 14 13 12 12 11 10 9 8 7 6 6 6 5 5 5 5 6
5 5 5 5 2 7 9 6 6 7 6 3 3 1 2 4 5 6 10 15 18 19 20 20 20 18 17 16 15 15 15 14 13 12 11 10 10 9 8 7 6 5 5 4 4 4 4 4 4
5 6 5 4 2 6 8 5 5 4 3 2 2 3 3 4 5 6 11 18 18 17 18 20 21 18 17 16 15 14 14 13 12 12 11 10 9 8 7 6 5 4 4 4 3 3 3 3 3
4 5 5 4 5 5 4 3 2 2 2 2 2 5 5 5 3 8 16 18 19 17 18 20 20 18 17 16 15 14 13 13 12 11 10 10 9 8 7 6 5 4 4 4 4 4 4 4 4
5 5 5 3 4 4 3 2 1 1 2 3 2 5 6 5 8 14 18 18 18 17 16 20 20 18 17 16 15 14 13 12 12 11 10 10 9 8 7 7 6 6 6 6 6 6 6 6 6
5 5 5 2 4 3 3 2 1 1 2 3 3 6 6 7 10 15 17 16 16 16 16 19 19 17 17 16 15 13 13 12 11 11 11 10 9 9 8 8 8 8 8 8 8 8 8 8 8
6 6 4 2 2 3 3 2 1 0 1 2 2 5 8 10 11 14 15 14 14 15 14 16 18 17 16 14 13 13 12 11 11 11 11 10 10 10 10 10 10 11 10 10 10 10 10 10 10
5 6 6 4 3 3 3 2 1 2 2 3 2 3 7 13 14 15 14 13 13 13 13 13 14 15 15 15 14 12 12 11 11 11 11 11 11 12 13 13 14 12 11 11 11 11 12 12 12
4 7 7 4 3 2 2 2 1 1 4 4 2 4 9 19 17 16 14 13 12 12 12 12 12 12 12 12 13 13 12 13 12 13 14 12 13 13 12 14 10 10 12 13 13 13 13 13 15
5 10 5 1 3 3 3 3 2 4 6 6 6 8 14 19 18 17 16 15 15 14 13 11 11 11 11 9 9 10 11 11 12 11 10 11 11 10 10 4 8 12 14 15 16 16 15 15 14
6 8 4 3 4 6 5 4 3 6 6 5 7 12 17 19 18 17 16 15 14 14 13 12 11 9 9 8 7 7 7 7 9 11 10 10 10 10 10 9 10 12 14 14 13 15 14 13 11
7 7 7 6 6 7 8 6 6 7 3 3 2 13 19 19 18 17 16 14 13 13 13 12 11 10 9 8 7 7 7 7 8 9 10 10 8 8 9 8 9 9 9 9 10 9 11 12 12
9 8 7 8 9 10 10 10 8 5 4 2 5 14 18 18 17 15 14 14 13 13 12 12 11 11 10 9 7 7 7 7 8 8 9 10 9 9 9 8 9 11 11 10 9 10 10 10 11
6 9 10 10 8 6 9 9 8 4 4 2 7 13 15 16 16 15 14 14 13 13 13 12 12 11 10 9 8 7 7 7 9 9 9 11 11 9 9 10 10 11 11 11 9 11 10 10 10
7 10 11 7 5 4 7 11 6 4 3 4 7 10 13 14 14 14 14 13 13 12 11 12 12 11 11 10 9 7 7 8 7 8 9 10 11 11 10 11 11 11 12 12 11 11 10 10 11
8 10 12 5 2 3 8 12 1 4 2 4 7 9 11 11 12 12 12 12 11 11 11 11 9 9 9 8 7 6 7 7 7 8 9 10 11 12 10 11 11 11 11 10 10 11 11 11 10
10 11 10 5 2 2 7 6 4 3 2 4 6 8 9 10 11 10 11 12 11 11 10 9 8 7 7 6 6 6 5 6 7 7 7 8 10 10 10 10 10 11 10 11 11 10 10 12 11
6 7 6 4 3 1 3 1 2 3 0 3 5 6 8 9 9 10 10 11 10 10 9 8 7 6 5 4 4 4 4 5 5 5 5 7 8 9 9 9 10 11 11 11 11 12 12 12 11
2 5 4 0 2 2 1 1 1 2 1 2 4 5 7 7 8 9 9 10 10 9 9 8 7 6 5 3 3 2 3 3 3 4 4 6 7 8 8 10 9 10 10 11 13 12 14 12 10
4 5 4 2 1 3 3 4 1 0 1 1 2 4 5 7 8 9 9 9 10 10 9 8 8 7 6 4 2 2 3 3 4 4 4 5 6 8 8 9 11 10 10 12 12 12 11 11 9
3 3 3 4 3 5 6 9 6 3 2 1 2 3 4 6 8 9 9 9 9 9 9 8 8 7 6 5 4 3 3 4 4 4 4 5 7 8 8 10 11 11 12 11 11 12 13 11 10
2 2 4 6 9 8 5 11 6 4 3 2 2 3 3 4 5 6 7 7 7 7 7 6 7 7 6 6 5 4 4 5 5 5 6 7 7 8 9 9 10 11 11 11 12 12 11 12 12
4 2 5 8 10 11 8 10 4 4 2 0 0 1 2 3 2 2 3 3 3 4 5 5 5 6 6 6 5 5 5 5 5 6 6 8 7 7 8 9 10 10 11 12 12 12 13 12 13
1 4 6 8 9 10 3 7 3 3 4 5 3 2 2 2 1 2 2 2 1 2 4 4 5 5 5 5 5 5 5 6 7 8 8 8 7 7 8 9 10 10 10 11 12 12 14 13 14
6 9 8 7 6 4 2 6 2 8 7 7 7 6 6 5 5 6 6 6 4 3 3 4 5 5 4 5 5 5 6 7 8 8 8 8 8 8 8 10 10 10 11 12 12 13 13 14 15
8 9 9 8 8 6 5 5 5 9 9 10 10 11 11 11 11 10 10 9 8 7 6 5 4 4 3 4 4 4 6 7 7 7 8 8 8 9 9 10 11 12 12 12 12 12 13 13 14
8 8 7 10 12 11 7 2 7 8 10 12 13 14 15 14 15 14 14 13 12 11 11 9 8 6 6 5 5 5 6 7 8 9 9 9 8 9 10 10 11 12 12 12 12 11 13 13 13
5 6 6 8 9 11 8 7 2 6 8 10 12 13 13 13 14 14 13 14 13 13 12 12 10 9 9 9 8 7 7 8 9 10 10 10 10 9 10 11 11 12 12 12 12 12 12 12 12
5 4 6 8 8 12 13 5 6 7 7 7 9 10 11 12 12 12 12 12 12 12 12 12 11 11 10 11 10 10 10 10 10 10 11 11 10 10 10 10 11 11 11 11 11 12 12 12 11
4 5 6 8 9 9 13 4 8 8 7 6 7 8 9 10 10 11 11 11 11 12 11 11 11 11 11 11 11 12 12 12 12 12 12 11 12 11 10 10 11 11 11 10 11 11 10 10 10
Wind_Direction
180 189 215 235 237 106 77 73 64 68 72 59 75 8 7 10 355 53 117 149 149 147 148 156 161 160 156 151 148 147 147 147 148 148 147 145 144 142 140 138 135 130 123 117 114 114 116 118 121
193 195 229 244 254 91 85 71 69 58 69 81 90 43 33 59 48 97 135 147 150 147 151 159 160 162 159 156 154 153 153 152 153 153 153 152 151 151 150 148 147 144 140 137 136 135 135 135 137
202 225 262 254 61 73 87 78 70 83 77 38 61 44 35 53 85 119 138 149 150 148 153 153 161 164 163 161 159 159 159 159 160 161 162 163 164 165 165 164 166 170 170 172 176 178 174 171 171
221 238 245 246 101 75 57 57 58 108 100 63 75 85 83 57 88 127 142 152 151 153 156 152 164 166 166 166 166 166 166 167 168 170 172 174 177 181 183 185 191 200 209 212 213 216 214 209 209
251 268 254 188 112 86 55 17 359 72 53 75 77 87 90 82 102 133 148 154 156 157 155 154 166 168 170 170 172 173 173 175 177 180 183 187 192 198 204 210 216 224 232 238 240 238 236 232 228
262 265 262 186 118 99 64 40 258 85 92 120 114 102 97 112 129 145 152 159 159 157 158 152 166 171 173 175 177 180 182 185 188 192 195 200 206 213 220 227 232 235 239 241 244 245 246 245 243
284 288 274 254 146 137 60 13 270 117 152 107 107 104 122 138 140 148 152 163 160 161 160 159 169 175 178 181 184 187 191 195 200 204 208 212 218 225 230 235 239 241 241 242 243 245 246 246 245
286 277 244 215 190 136 59 356 310 244 134 121 166 125 143 151 148 150 155 162 163 166 168 170 174 177 183 187 189 195 202 207 212 217 222 225 230 232 232 237 233 238 244 247 249 249 250 248 246
264 256 241 215 203 122 39 314 211 168 143 154 136 60 118 141 149 153 158 164 169 174 177 182 178 184 193 198 185 197 208 215 221 225 224 232 242 241 227 232 223 238 247 251 252 252 252 252 245
242 252 245 1 316 320 327 295 264 196 184 172 147 116 132 147 157 163 169 173 176 181 184 191 189 190 198 206 194 214 217 215 224 237 234 235 244 256 261 245 227 244 249 252 250 251 251 248 251
244 259 291 286 310 307 298 292 254 238 220 202 182 158 157 161 167 173 178 180 180 184 188 192 194 198 206 207 216 221 230 229 232 238 243 251 261 255 253 253 232 233 238 246 241 238 244 246 247
253 259 277 287 308 296 293 289 269 250 296 22 165 161 166 172 177 180 180 182 181 188 192 194 194 198 211 221 222 229 237 237 244 239 243 249 249 258 262 261 266 261 250 248 256 252 252 255 259
246 263 273 280 285 286 279 267 273 265 325 336 157 164 174 178 179 180 179 181 182 190 195 196 198 203 207 216 232 237 247 256 254 260 256 258 260 261 264 265 264 266 264 256 250 257 257 255 255
281 285 277 275 278 265 262 258 246 262 316 224 173 175 179 179 178 177 179 183 188 193 196 197 202 206 210 215 224 239 250 251 265 264 264 264 266 269 272 270 266 266 267 265 262 258 256 254 254
280 273 258 245 260 257 258 243 242 313 292 205 182 176 175 176 179 182 184 187 192 195 196 200 204 208 213 222 231 243 252 260 266 271 272 271 270 271 271 273 271 268 267 263 259 260 257 251 248
247 247 244 205 286 233 242 247 89 342 244 190 174 169 171 174 182 184 184 190 194 196 198 202 207 208 215 224 237 252 262 269 274 279 282 281 282 279 277 276 276 277 274 269 264 259 258 255 251
225 236 239 216 33 273 246 259 46 0 211 179 174 171 172 173 181 184 188 192 193 197 199 200 207 210 212 222 232 250 263 270 277 283 289 293 292 289 284 282 283 283 277 273 270 267 262 260 254
220 232 228 240 28 323 249 242 53 38 143 176 180 177 178 177 177 179 185 188 188 190 191 191 190 199 194 202 219 250 260 269 275 287 298 303 302 301 300 289 289 289 283 278 273 271 264 260 257
246 245 238 163 18 318 278 275 18 49 181 190 196 192 186 178 167 173 176 176 176 178 177 179 172 175 177 184 214 236 262 279 288 293 314 309 311 314 306 301 304 294 287 285 282 277 271 264 257
216 231 232 196 51 301 286 274 273 122 244 256 220 206 191 181 173 173 169 170 173 169 167 167 169 168 174 175 198 245 292 289 298 302 305 304 311 312 305 308 301 297 293 283 281 278 275 272 258
216 262 288 298 292 244 269 251 216 188 198 205 218 214 199 186 178 173 171 168 167 165 166 165 165 165 177 185 201 210 232 257 270 290 292 306 310 307 308 303 300 300 291 287 285 281 274 273 266
261 344 298 288 282 276 274 279 219 191 207 200 202 197 192 179 174 170 171 166 167 165 162 166 173 176 184 198 217 239 273 295 311 304 306 307 300 305 307 304 301 297 293 290 283 279 277 271 268
340 342 284 283 280 276 252 269 242 150 209 331 87 185 183 169 166 160 163 162 170 181 180 184 189 196 200 211 216 236 261 285 295 299 298 298 302 302 305 307 305 300 294 293 290 286 277 270 266
229 248 248 252 262 259 256 278 249 71 3 355 20 40 52 68 57 32 18 18 274 234 219 217 215 223 223 227 233 247 268 280 291 295 302 302 306 307 310 310 306 299 297 294 288 284 277 271 268
258 284 282 265 253 265 133 267 42 56 34 23 26 34 41 41 30 23 15 6 353 330 302 266 254 251 251 251 253 260 269 274 274 285 295 300 306 310 317 311 304 300 297 292 288 282 277 273 267
299 292 289 297 297 299 241 259 96 76 60 53 48 46 44 41 36 30 23 15 10 9 1 345 331 318 311 293 286 278 272 273 280 281 289 294 298 305 312 304 300 298 297 294 290 283 277 273 269
292 280 305 285 278 278 273 188 133 94 67 57 54 52 48 43 40 37 33 28 25 24 22 15 11 7 359 344 324 300 292 287 286 283 274 280 285 293 298 298 298 299 300 298 294 284 281 278 272
307 302 269 272 284 284 276 260 217 98 62 59 54 52 48 44 42 38 33 29 26 24 24 22 21 17 9 358 344 331 318 304 291 283 282 282 282 284 288 291 295 299 300 299 296 290 283 279 274
300 274 292 284 285 290 292 309 62 75 72 68 61 51 42 35 31 27 24 20 18 16 16 14 12 9 5 360 351 342 333 323 306 291 283 278 275 276 279 285 291 295 299 303 301 299 296 288 283
286 307 294 290 291 283 284 298 86 88 81 64 50 36 26 18 14 13 9 7 5 3 0 0 358 356 353 350 346 344 337 330 319 307 295 284 274 270 272 279 285 290 297 303 304 304 304 297 290
Height
1511 1511 1512 1514 1506 1493 1499 1497 1494 1494 1494 1498 1499 1499 1499 1500 1503 1512 1515 1515 1518 1521 1522 1525 1528 1531 1535 1538 1541 1543 1545 1547 1549 1550 1552 1553 1554 1555 1555 1556 1557 1558 1558 1559 1559 1559 1560 1560 1560
1513 1512 1514 1511 1494 1501 1505 1497 1496 1497 1499 1500 1501 1502 1501 1505 1510 1513 1514 1516 1519 1522 1524 1526 1529 1532 1536 1539 1541 1544 1546 1548 1550 1551 1552 1553 1554 1555 1556 1557 1557 1558 1559 1559 1559 1560 1560 1560 1561
1513 1513 1514 1500 1495 1500 1503 1498 1498 1499 1501 1501 1501 1503 1505 1508 1512 1514 1515 1517 1521 1524 1526 1528 1530 1533 1537 1539 1542 1544 1546 1548 1550 1551 1552 1553 1554 1555 1556 1557 1557 1558 1558 1559 1559 1559 1560 1560 1560
1515 1515 1510 1497 1499 1498 1498 1498 1499 1499 1501 1502 1502 1504 1508 1512 1513 1514 1515 1519 1522 1525 1529 1529 1532 1534 1537 1540 1543 1545 1547 1548 1550 1551 1552 1553 1554 1555 1555 1556 1556 1557 1557 1558 1558 1558 1559 1559 1559
1516 1512 1500 1497 1498 1497 1498 1499 1500 1499 1500 1502 1503 1504 1509 1513 1513 1514 1517 1521 1524 1528 1530 1530 1532 1535 1538 1540 1543 1545 1547 1548 1550 1551 1552 1553 1553 1554 1555 1555 1555 1556 1556 1556 1557 1557 1557 1557 1558
1516 1506 1500 1501 1500 1499 1498 1500 1500 1499 1501 1503 1504 1505 1511 1514 1515 1517 1520 1523 1527 1529 1531 1531 1533 1536 1538 1541 1543 1545 1546 1548 1549 1550 1551 1552 1552 1553 1553 1554 1554 1554 1554 1554 1555 1555 1555 1555 1556
1514 1503 1501 1500 1501 1499 1500 1501 1500 1499 1501 1502 1504 1505 1512 1515 1516 1518 1521 1524 1528 1530 1533 1533 1534 1536 1538 1541 1543 1544 1546 1547 1548 1549 1550 1551 1551 1551 1552 1552 1552 1552 1552 1552 1552 1552 1553 1553 1553
1514 1505 1499 1498 1501 1500 1500 1501 1500 1500 1501 1505 1506 1504 1510 1515 1516 1519 1522 1525 1528 1531 1533 1534 1536 1537 1539 1541 1542 1544 1545 1546 1547 1548 1548 1549 1549 1549 1549 1550 1549 1549 1550 1550 1550 1550 1551 1551 1551
1515 1507 1500 1497 1498 1498 1499 1499 1499 1500 1502 1505 1506 1507 1509 1512 1516 1519 1522 1525 1527 1530 1532 1535 1537 1538 1540 1542 1543 1543 1544 1545 1546 1546 1547 1547 1548 1549 1549 1548 1547 1547 1547 1547 1547 1548 1548 1548 1548
1512 1504 1497 1498 1499 1498 1499 1499 1498 1499 1500 1503 1506 1508 1509 1512 1515 1518 1521 1524 1526 1528 1531 1533 1536 1537 1539 1542 1542 1543 1544 1545 1544 1546 1546 1546 1546 1547 1547 1546 1545 1545 1544 1544 1544 1545 1545 1545 1546
1508 1502 1500 1501 1501 1501 1498 1498 1498 1496 1495 1498 1502 1506 1508 1511 1514 1517 1520 1523 1525 1527 1530 1532 1534 1535 1538 1540 1541 1542 1543 1544 1544 1544 1544 1543 1544 1544 1544 1544 1543 1541 1541 1541 1542 1541 1541 1542 1543
1508 1505 1505 1503 1503 1502 1500 1498 1497 1496 1496 1500 1502 1504 1506 1510 1513 1516 1519 1522 1525 1527 1529 1531 1532 1533 1535 1537 1539 1539 1541 1542 1542 1542 1541 1541 1540 1540 1541 1540 1540 1539 1539 1538 1538 1538 1538 1538 1538
1508 1504 1504 1504 1502 1501 1500 1498 1497 1496 1498 1500 1501 1503 1505 1509 1512 1516 1519 1522 1523 1525 1527 1529 1530 1532 1533 1534 1536 1537 1538 1539 1540 1538 1538 1538 1537 1537 1537 1535 1534 1534 1534 1534 1533 1533 1533 1533 1533
1506 1506 1503 1501 1500 1500 1498 1495 1496 1496 1498 1499 1500 1502 1505 1508 1511 1515 1517 1520 1522 1524 1526 1528 1529 1530 1532 1533 1534 1535 1536 1536 1535 1535 1535 1534 1534 1533 1532 1531 1530 1529 1529 1529 1528 1528 1528 1528 1528
1508 1504 1498 1496 1497 1497 1497 1494 1494 1497 1497 1498 1499 1502 1504 1507 1511 1513 1516 1518 1521 1523 1525 1526 1527 1529 1530 1531 1532 1533 1533 1533 1533 1532 1531 1530 1529 1528 1527 1526 1525 1525 1524 1523 1523 1522 1523 1522 1522
1503 1501 1498 1492 1495 1495 1497 1493 1493 1496 1496 1496 1499 1501 1504 1507 1510 1512 1515 1517 1519 1521 1523 1524 1526 1527 1528 1529 1530 1531 1531 1531 1530 1530 1529 1527 1526 1525 1523 1522 1521 1520 1519 1518 1517 1516 1517 1516 1516
1500 1499 1496 1493 1494 1493 1492 1490 1495 1496 1495 1496 1499 1501 1503 1506 1509 1511 1513 1515 1517 1519 1521 1522 1524 1525 1527 1528 1528 1529 1528 1528 1528 1527 1526 1524 1523 1521 1519 1518 1516 1514 1513 1512 1511 1510 1510 1509 1509
1499 1497 1497 1496 1494 1493 1492 1493 1495 1496 1496 1496 1498 1501 1503 1505 1507 1509 1511 1513 1515 1517 1519 1521 1522 1523 1524 1526 1526 1527 1527 1527 1526 1525 1523 1521 1519 1517 1515 1514 1511 1510 1508 1506 1505 1504 1503 1503 1503
1500 1499 1499 1498 1496 1495 1495 1495 1495 1497 1497 1497 1498 1500 1502 1505 1506 1508 1509 1511 1514 1515 1517 1519 1521 1522 1523 1524 1525 1526 1526 1525 1524 1523 1520 1518 1516 1514 1511 1510 1507 1505 1503 1501 1500 1499 1497 1496 1497
1501 1502 1499 1498 1497 1496 1497 1496 1494 1497 1497 1498 1499 1500 1502 1504 1505 1506 1508 1510 1512 1514 1516 1518 1520 1521 1522 1523 1524 1523 1523 1523 1522 1520 1517 1515 1513 1510 1509 1506 1504 1502 1499 1496 1495 1493 1491 1490 1491
1500 1500 1500 1500 1497 1495 1497 1496 1493 1494 1498 1499 1500 1501 1502 1503 1505 1507 1508 1510 1512 1514 1515 1517 1518 1519 1521 1521 1522 1521 1520 1520 1519 1518 1515 1512 1509 1507 1504 1501 1499 1497 1495 1493 1490 1488 1487 1485 1485
1502 1498 1500 1500 1501 1496 1498 1502 1491 1491 1494 1496 1499 1500 1502 1504 1506 1507 1509 1511 1512 1514 1515 1516 1516 1518 1518 1519 1520 1520 1519 1518 1517 1514 1512 1509 1506 1503 1501 1498 1495 1492 1490 1488 1485 1484 1482 1481 1480
1500 1500 1500 1499 1499 1500 1495 1501 1489 1490 1494 1495 1498 1501 1503 1505 1507 1509 1510 1511 1512 1513 1514 1515 1515 1516 1516 1516 1517 1516 1516 1515 1514 1511 1508 1505 1503 1500 1497 1494 1491 1488 1485 1483 1480 1478 1476 1475 1474
1500 1501 1499 1497 1496 1505 1498 1504 1496 1494 1500 1499 1500 1503 1505 1506 1508 1509 1510 1511 1512 1513 1513 1514 1514 1514 1514 1514 1514 1513 1512 1511 1510 1507 1505 1503 1500 1497 1494 1491 1487 1484 1481 1478 1475 1472 1471 1469 1468
1499 1503 1509 1509 1506 1503 1497 1502 1501 1504 1506 1507 1506 1506 1507 1508 1509 1509 1510 1510 1510 1511 1511 1512 1512 1512 1511 1510 1510 1509 1508 1507 1505 1504 1502 1499 1497 1494 1490 1487 1483 1480 1477 1474 1470 1467 1465 1463 1461
1498 1503 1515 1522 1514 1502 1495 1498 1501 1507 1511 1512 1512 1511 1510 1511 1511 1510 1510 1510 1509 1509 1508 1509 1508 1508 1507 1506 1506 1505 1504 1503 1502 1500 1497 1495 1492 1490 1486 1482 1479 1476 1473 1469 1466 1463 1460 1457 1455
1499 1497 1495 1505 1503 1507 1495 1493 1504 1508 1512 1514 1515 1515 1515 1515 1514 1513 1512 1511 1509 1508 1506 1505 1505 1504 1503 1503 1502 1501 1499 1498 1497 1494 1492 1490 1488 1485 1482 1478 1475 1472 1468 1465 1461 1458 1455 1452 1450
1499 1496 1500 1504 1515 1513 1499 1495 1494 1507 1513 1517 1519 1519 1519 1519 1517 1516 1514 1512 1510 1508 1506 1505 1504 1502 1500 1499 1498 1497 1495 1493 1491 1489 1487 1485 1483 1480 1477 1474 1471 1468 1464 1461 1457 1453 1450 1447 1444
1499 1499 1500 1498 1502 1511 1509 1502 1509 1512 1516 1519 1521 1522 1522 1521 1520 1518 1516 1514 1512 1510 1507 1505 1503 1501 1499 1497 1494 1492 1490 1488 1486 1484 1482 1480 1477 1475 1472 1470 1467 1464 1460 1457 1453 1449 1446 1442 1440
1499 1500 1500 1508 1506 1502 1506 1507 1514 1517 1520 1522 1524 1524 1524 1522 1521 1519 1516 1514 1512 1509 1507 1504 1502 1499 1496 1494 1491 1488 1485 1483 1480 1478 1476 1474 1471 1469 1467 1465 1463 1460 1457 1453 1450 1446 1442 1439 1436